sat.trackr.live / text

‹ back to catalog

FENGYUN 3C

NORAD 39260 · 2013-052A

PAYLOAD ACTIVE UNKNOWN

§ Identity

Operator
Country
PRC
Launch date
2013-09-23
Launch site
TAISC
Launch vehicle
Mass (kg)
RCS (m²)
7.44

Purposes: earth_obs

External: N2YO · Heavens-Above · Gunter

§ Orbital elements

Epoch: 2026-09-20T04:04:37.035840Z

Period
101.71 min
Inclination
98.5110°
Eccentricity
0.0015742
Mean motion
14.15772605 rev/d
Perigee alt
828.3 km
Apogee alt
851.0 km
Semi-major
7,217.8 km
B*
5.8036e-5
RAAN
232.7367°
Arg perigee
108.4017°
Mean anomaly
251.8871°
Rev number
67,200

§ Raw data

FENGYUN 3C1 39260U 13052A   26263.16987310  .00000073  00000+0  58036-4 0  99902 39260  98.5110 232.7367 0015742 108.4017 251.8871 14.15772605672001

JSON: /api/v1/satellites/39260 · /tle

For live sub-satellite position, see the globe view (requires WebGL).

§ Visibility from observer

Set your observer location to see the next 7 days of passes ≥ 10°. The values pass through the URL so the page stays shareable.

No JS? Fill the form by hand. The geolocation button needs JavaScript.

§ Radio — SatNOGS DB

ModeDescriptionDownlinkUplink
AHRPT AHRPT 1.701 GHz
AHRPT AHRPT Downlink 1.701 GHz
FM MPT 7.780 GHz
QPSK Mode X 8.175 GHz
FM S band telemetry 2.253 GHz
BPSK Telemetry 2.219 GHz

6 transmitters · refreshed weekly from db.satnogs.org